Location: Esboz
(47.8088°N, 6.4491°E)
Time: 18:46:11
(UTC+00:00)

Daily predictions for brighter satellites

Satellite Brightness Start Highest point End
(mag) Time Altitude Azimuth Time Altitude Azimuth Time Altitude Azimuth
Cosmos 1486 Rocket 4.3 19:24:27 10° S 19:29:34 50° ESE 19:34:43 10° NNE
CZ-4C R/B 3.8 19:23:21 10° NW 19:29:42 39° NE 19:37:07 10° E
USA 307 4.3 19:26:07 10° WNW 19:30:04 35° N 19:34:02 10° ENE
ERS-2 2.7 19:29:08 10° N 19:32:45 62° WNW 19:36:19 10° SSW
FALCON 9 DEB 4.3 19:30:15 10° W 19:32:57 28° SW 19:35:38 10° SSE
SL-4 R/B 3.0 19:29:52 10° WNW 19:33:59 43° SW 19:38:22 10° SE
SL-08 ROCKET BODY 4.4 19:30:26 10° N 19:36:23 85° E 19:42:15 10° S
USA 215 4.5 19:30:41 10° ENE 19:36:45 42° N 19:42:49 10° WNW
Cosmos 1151 Rocket 4.5 19:34:05 10° SE 19:37:19 21° E 19:40:36 10° NE
CREW DRAGON DEMO-1 DEB 4.1 19:38:07 10° WNW 19:40:34 33° N 19:43:01 10° ENE
ATLAS 5 CENTAUR R/B 2.6 19:35:11 10° NW 19:40:35 61° NE 19:46:58 10° SE
Cosmos 1844 3.8 19:37:47 10° S 19:43:22 56° ESE 19:48:54 10° NE
OBJECT-B 2.0 19:40:20 10° S 19:43:26 43° W 19:46:34 10° NNW
USA 308 4.3 19:39:41 10° WNW 19:43:41 36° N 19:47:41 10° ENE
Cosmos 1833 Rocket 3.9 19:47:50 10° NNW 19:52:45 29° NE 19:57:37 10° ESE
OE (NEXTSAT) 4.3 19:50:00 10° W 19:53:26 66° S 19:56:53 10° E
Intercosmos 24 3.8 19:50:44 10° S 19:54:26 55° E 19:57:57 10° NNE
Cosmos 1242 Rocket 2.9 19:53:45 10° SSE 19:57:09 42° E 20:00:32 10° NNE
Cosmos 1805 Rocket 3.6 19:55:03 10° NNW 19:59:25 80° W 20:03:46 10° S
Spot 2 Rocket 4.3 19:56:46 11° SE 20:01:02 35° ENE 20:05:37 10° N
SPOT 5 4.3 20:01:57 12° ESE 20:05:49 27° ENE 20:10:12 10° N
Cosmos 1633 Rocket 3.4 20:02:51 10° N 20:07:07 48° ENE 20:10:43 14° SSE
BREEZE-M DEB (TANK) 4.4 19:49:46 10° WSW 20:07:14 86° SSE 20:11:12 10° ENE
CZ-2C R/B 4.0 20:03:55 10° NNE 20:08:13 44° E 20:12:33 10° S
ARIANE 5 R/B 3.5 20:06:12 14° SE 20:09:24 34° ENE 20:13:20 10° N
Terra 3.5 20:06:40 11° ESE 20:09:55 20° ENE 20:13:23 10° NNE
USA 290 2.4 20:08:58 10° NNW 20:12:13 70° WSW 20:14:51 14° SSE
ERS-1 Rocket 4.0 20:10:41 14° ESE 20:14:18 31° ENE 20:18:43 10° N
IGS 5A 3.5 20:11:11 10° SSE 20:15:19 86° WSW 20:19:30 10° NNW
Cosmos 1745 Rocket 4.2 20:10:37 10° NNW 20:16:48 72° W 20:22:54 10° S
Cosmos 1470 Rocket 4.4 20:13:06 10° N 20:17:17 37° ENE 20:20:11 18° SE
Cosmos 1328 Rocket 4.0 20:14:51 13° SSE 20:18:35 42° E 20:22:46 10° NNE
Cosmos 1437 3.6 20:17:58 22° SE 20:18:50 26° E 20:21:16 10° NE
Cosmos 1709 Rocket 3.9 20:13:24 10° N 20:19:33 74° E 20:25:15 12° SSE
Cosmos 1933 3.3 20:15:31 10° S 20:19:33 85° W 20:23:37 10° N
Cosmos 1503 Rocket 3.9 20:15:23 10° SSW 20:20:32 77° ESE 20:25:46 10° NNE
Cosmos 1437 Rocket 4.0 20:18:45 10° SSW 20:22:26 43° WNW 20:26:15 10° N
X-37B 1.1 20:19:41 10° W 20:22:44 42° SSW 20:24:16 23° SE
USA 305 3.8 20:21:22 10° WNW 20:25:30 44° NNE 20:29:31 10° E
CARTOSAT-1 4.1 20:23:35 19° SE 20:26:24 45° ENE 20:30:32 10° N
Cosmos 1500 3.6 20:24:28 10° N 20:28:06 45° ENE 20:30:08 22° SE
Cosmos 2082 Rocket 3.5 20:23:20 10° NNW 20:28:10 29° NE 20:32:17 13° ESE
COSMOS 2406 3.7 20:23:11 10° NNW 20:28:41 48° NE 20:32:38 18° ESE
Cosmos 1933 Rocket 4.4 20:27:46 10° N 20:31:44 33° ENE 20:33:54 21° ESE
Ariane Rocket 4.5 20:27:39 10° SSW 20:32:11 33° W 20:36:46 10° NNW
Cosmos 1666 Rocket 3.7 20:29:16 10° NNW 20:33:41 77° W 20:37:21 14° S
Cosmos 2315 Rocket 4.0 20:32:47 10° S 20:39:10 81° E 20:45:34 10° N
Landsat 7 4.3 20:35:42 12° S 20:40:07 59° W 20:44:51 10° NNW
Cosmos 1782 2.7 20:36:20 11° S 20:40:10 89° E 20:44:11 10° N
SWARM A 4.5 20:37:18 10° N 20:40:33 50° E 20:41:49 30° SE
USA 245 1.9 20:42:52 48° S 20:43:22 77° WSW 20:45:37 10° NNW
USA 306 3.6 20:40:35 10° WNW 20:44:45 51° NNE 20:47:59 16° E
Cosmos 1271 Rocket 3.9 20:46:42 24° ESE 20:47:30 26° E 20:50:52 10° NE
SPOT 1/Viking Rocket 3.7 20:45:30 16° S 20:49:38 72° WSW 20:54:50 10° NNW
Cosmos 1354 Rocket 4.3 20:47:17 10° SSW 20:52:30 70° WNW 20:57:45 10° NNE
SJ 16-02 2.2 20:52:10 28° SE 20:53:18 32° E 20:57:15 10° NE
Cosmos 2278 Rocket 2.5 20:50:06 17° S 20:54:04 45° ESE 20:59:28 10° NE
Meteor 1-11 Rocket 4.5 20:48:59 10° N 20:54:38 42° ENE 20:57:46 24° SE
Resurs 01 Rocket 3.3 20:53:40 10° SSW 20:57:33 30° W 21:01:28 10° NW
NOSS 3-4 (A) 4.2 20:51:21 10° NW 20:58:05 58° NE 21:03:32 20° ESE
NOSS 3-4 (C) 4.2 20:51:27 10° NW 20:58:12 57° NE 21:03:39 19° ESE
Cosmos 2228 Rocket 4.0 21:01:58 28° ESE 21:02:58 31° E 21:06:53 10° NNE
H-2A R/B 4.1 20:59:46 10° NNE 21:03:42 38° E 21:04:39 33° SE
Cosmos 1844 Rocket 4.4 20:58:56 10° WSW 21:03:59 34° NW 21:09:05 10° NNE
NOSS 3-3 (A) 3.9 21:01:53 10° SW 21:07:40 88° SE 21:14:20 10° NE
NOSS 3-3 (C) 3.9 21:01:59 10° SW 21:07:46 87° SE 21:14:27 10° NE
USA 307 3.2 21:06:20 10° WNW 21:10:36 63° NNE 21:12:47 27° E
Cosmos 1943 Rocket 4.2 21:11:10 12° E 21:11:10 12° E 21:12:47 10° ENE
ATLAS 2AS CENTAUR R/B 3.6 21:04:21 10° NW 21:11:35 46° NE 21:16:52 17° ESE
Cosmos 1151 Rocket 4.2 21:10:28 10° SSW 21:14:35 42° WNW 21:18:46 10° N
CREW DRAGON DEMO-1 DEB 2.7 21:12:34 10° WNW 21:15:12 61° NNE 21:15:12 61° NNE
BREEZE-M R/B 2.1 21:15:34 10° W 21:17:58 65° N 21:18:27 50° NE
Cosmos 1536 3.6 21:14:49 10° N 21:18:36 36° ENE 21:19:22 33° E
Cosmos 1812 2.8 21:16:50 29° SSW 21:18:42 73° WNW 21:22:34 10° N
CZ-4C R/B 3.0 21:11:42 10° NW 21:18:55 77° SW 21:23:48 28° SSE
USA 215 4.3 21:12:54 10° E 21:18:59 43° N 21:25:05 10° WNW
Meteor 1-10 Rocket 4.2 21:17:12 28° S 21:20:11 68° E 21:25:48 10° NNE
Iridium 4 Rocket 3.7 21:18:17 26° S 21:21:40 85° E 21:27:38 10° N
USA 308 3.0 21:19:50 10° WNW 21:24:08 73° NNE 21:25:49 36° ESE
ATLAS 5 CENTAUR R/B 3.5 21:20:03 10° WNW 21:25:09 33° WSW 21:28:41 20° SSW
Cosmos 1538 Rocket 4.1 21:21:07 10° NNW 21:26:31 76° WSW 21:28:51 34° S
Meteor 1-5 Rocket 4.3 21:22:36 10° NNW 21:27:58 64° W 21:30:46 28° S
Cosmos 2084 3.7 21:25:31 10° SW 21:29:39 66° NW 21:33:54 10° NE
Cosmos 158 Rocket 3.8 21:26:04 10° NNW 21:30:58 75° ENE 21:32:38 41° SE
SL-24 DEB 4.2 21:30:18 43° SSE 21:31:43 70° E 21:36:19 10° N
Milstar 3 4.5 21:23:33 10° SW 21:31:55 22° S 21:32:19 22° S
Cosmos 1666 3.0 21:30:22 10° NNW 21:34:02 58° W 21:34:56 43° SSW
Cosmos 1515 Rocket 4.2 21:34:00 22° SSW 21:36:41 53° WNW 21:41:01 10° N
Cosmos 1833 Rocket 3.0 21:31:29 10° NW 21:37:02 58° WSW 21:39:27 33° S
Cosmos 1869 Rocket 3.5 21:36:01 10° N 21:40:22 73° E 21:41:16 53° SE
Cosmos 1743 3.6 21:38:58 10° N 21:42:32 35° ENE 21:42:43 34° E
SPOT 5 3.7 21:41:10 27° SSW 21:43:35 48° W 21:48:41 10° NNW
Cosmos 1680 Rocket 3.9 21:38:43 10° NNW 21:43:58 56° ENE 21:45:47 38° ESE
ARIANE 5 R/B 4.2 21:43:44 18° SW 21:45:55 27° W 21:49:37 10° NW
Terra 2.2 21:45:33 36° SSW 21:47:16 58° W 21:51:59 10° NNW
Cosmos 2297 4.4 21:50:18 33° ESE 21:50:45 34° ESE 21:55:49 10° NE
ERS-1 Rocket 4.0 21:50:41 25° SSW 21:53:00 38° W 21:57:43 10° NNW
Cosmos 2154 Rocket 4.0 21:51:09 10° N 21:57:30 80° W 22:00:11 37° S
Cosmos 1707 Rocket 3.8 21:59:37 50° ESE 21:59:49 50° E 22:04:05 10° NNE
ALOS 2 4.0 21:59:30 24° E 22:00:24 26° ENE 22:04:02 10° N
Spot 4 4.4 22:01:02 39° ESE 22:02:10 47° ENE 22:06:50 10° N
USA 305 2.9 22:01:22 10° WNW 22:05:34 62° SW 22:05:34 62° SW
Cosmos 2082 Rocket 2.4 22:07:06 10° NW 22:12:37 58° WSW 22:14:07 44° SSW
COSMOS 2406 4.4 22:07:52 10° NW 22:12:46 31° WSW 22:14:42 25° SW
Meteor 1-27 Rocket 3.9 22:12:02 35° SSW 22:14:37 73° WNW 22:20:33 10° N
Cosmos 962 Rocket 4.4 22:08:55 10° N 22:15:06 84° E 22:17:03 46° SSE
Cosmos 44 3.7 22:11:21 10° NW 22:16:49 68° NE 22:18:21 45° ESE
Nadezhda 1 Rocket 4.3 22:16:05 29° SSW 22:19:21 64° WNW 22:25:35 10° N
Cosmos 923 Rocket 4.2 22:14:19 10° NNW 22:19:29 61° WSW 22:20:38 48° SSW
Cosmos 1898 Rocket 3.5 22:20:54 57° SSE 22:21:51 70° ESE 22:27:11 10° NNE
USA 306 3.6 22:20:37 10° WNW 22:24:03 42° WSW 22:24:03 42° WSW
Cosmos 1544 3.8 22:25:59 10° NNW 22:29:08 45° WNW 22:29:08 45° WNW
Gbstr 26 Del rocket 4.2 22:22:32 10° WNW 22:29:58 74° NNE 22:34:28 20° E
SJ 16-02 3.0 22:29:06 16° WSW 22:31:52 31° WNW 22:35:50 10° N
Cosmos 1733 Rocket 2.8 22:27:51 10° N 22:32:12 85° E 22:32:19 83° ESE
Meteor 1-19 Rocket 4.2 22:33:42 53° SE 22:34:28 59° E 22:39:46 10° NNE
Cosmos 2181 Rocket 3.9 22:34:44 50° SSE 22:36:19 70° E 22:42:25 10° NNE
Cosmos 1515 3.9 22:38:29 67° N 22:38:29 67° N 22:41:50 10° N
Cosmos 2278 Rocket 3.6 22:33:10 10° WSW 22:38:18 35° NW 22:43:29 10° NNE
Cosmos 1238 Rocket 3.7 22:32:08 10° N 22:38:32 89° W 22:39:54 55° S
Okean 1 3.4 22:40:56 74° NNE 22:40:56 74° NNE 22:44:37 10° N
Cosmos 990 Rocket 4.2 22:40:06 43° SW 22:41:44 68° WNW 22:47:00 10° NNE
Cosmos 1340 Rocket 3.7 22:39:37 10° NNW 22:43:26 41° W 22:43:26 41° W
Cosmos 1908 Rocket 4.2 22:40:39 10° N 22:44:58 45° ENE 22:45:11 44° E
Cosmos 2366 rocket 3.9 22:41:47 10° N 22:47:59 84° E 22:49:36 53° SSE
Cosmos 2369 Rocket 2.8 22:48:04 38° ESE 22:48:09 38° ESE 22:53:19 10° NE
NOSS 3-4 (A) 4.4 22:42:24 10° NW 22:49:00 43° WSW 22:50:58 36° SSW
NOSS 3-4 (C) 4.4 22:42:30 10° NW 22:49:06 43° WSW 22:51:05 37° SSW
Cosmos 372 Rocket 4.2 22:49:29 50° ESE 22:49:30 50° ESE 22:54:25 10° NNE
Cosmos 2341 Rocket 4.2 22:43:29 10° NNW 22:49:49 64° W 22:51:45 44° SSW
USA 307 4.4 22:46:33 10° WNW 22:48:54 25° W 22:48:54 25° W
Cosmos 967 Rocket 4.3 22:49:56 49° SSW 22:51:44 79° ESE 22:58:02 10° NE
Cosmos 1943 Rocket 2.1 22:52:38 61° S 22:53:34 75° ESE 22:59:10 10° NNE
Meteor 2-9 Rocket 4.2 22:49:35 10° NNW 22:55:26 82° W 22:56:34 59° S
SeaSat 1 3.7 22:51:31 10° NE 22:55:08 27° E 22:55:08 27° E
Cosmos 1461 3.9 22:58:11 39° E 22:58:11 39° E 23:01:41 10° NE
USA 215 3.3 22:57:12 23° ESE 23:01:33 76° NNE 23:08:06 10° NW
ATLAS 2AS CENTAUR R/B 2.9 22:55:37 10° NW 23:02:44 55° WSW 23:04:17 46° SSW
RESURS DK-1 3.6 23:03:11 10° NNW 23:07:00 34° NE 23:07:43 31° ENE
Cosmos 2218 Rocket 4.1 23:01:13 10° NNW 23:07:28 70° W 23:09:04 50° SSW
Cosmos 1975 3.1 23:04:48 10° NNW 23:08:17 63° NW 23:08:17 63° NW
SL-24 R/B - RUBIN 2 4.2 23:04:10 10° NW 23:09:19 50° WSW 23:09:19 50° WSW
Meteor 2-4 Rocket 3.7 23:09:23 59° SSE 23:10:20 70° E 23:15:59 10° NNE
Cosmos 489 Rocket 4.4 23:04:33 10° NNW 23:10:46 74° WSW 23:12:09 55° S
Cosmos 1862 Rocket 4.0 23:13:56 50° W 23:14:06 51° WNW 23:18:20 10° N
Cosmos 1703 Rocket 3.8 23:14:30 56° ENE 23:14:30 56° ENE 23:18:33 10° NNE
Cosmos 1782 Rocket 4.0 23:12:09 10° N 23:16:32 52° ENE 23:16:38 52° E
Cosmos 1656 Rocket 4.2 23:17:56 41° ESE 23:18:03 41° ESE 23:23:11 10° NE
Cosmos 2084 Rocket 4.0 23:17:23 10° NW 23:20:45 48° W 23:20:45 48° W
ERBS 4.1 23:19:12 10° NW 23:20:56 28° NW 23:20:56 28° NW
Cosmos 1937 Rocket 4.2 23:26:02 37° WSW 23:27:31 48° WNW 23:32:32 10° NNE
Nadezhda 3 Rocket 4.1 23:28:06 51° SSE 23:29:32 66° E 23:35:42 10° NNE
ATLAS CENTAUR R/B 3.4 23:34:53 17° ENE 23:34:53 17° ENE 23:36:06 10° ENE
Cosmos 1833 4.4 23:27:19 10° NNW 23:33:05 68° ENE 23:34:47 45° SE
Okean 3 4.1 23:35:42 48° ENE 23:35:42 48° ENE 23:39:30 10° NNE
Thor Agena Rocket 3.4 23:30:43 10° NNE 23:35:59 83° ESE 23:36:40 68° S
ALOS 2 3.5 23:36:53 37° W 23:36:53 37° W 23:40:42 10° NNW
Cosmos 1818 3.9 23:31:43 10° NW 23:36:53 47° WSW 23:36:53 47° WSW
USA 281 4.3 23:32:05 13° ESE 23:37:19 39° NE 23:43:19 10° NNW
Cosmos 1607 4.1 23:36:39 51° SSE 23:37:39 57° ESE 23:43:59 10° NE
Cosmos 1048 Rocket 3.9 23:33:03 10° NNW 23:38:26 85° ENE 23:39:11 66° SE
DNEPR-1 R/B 4.4 23:39:47 36° WSW 23:41:50 59° NW 23:46:41 10° NNE
Cosmos 2298 Rocket 4.0 23:41:55 64° SE 23:42:22 67° ESE 23:47:39 10° NNE
Okean 1-7 3.0 23:42:48 72° NW 23:42:48 72° NW 23:46:52 10° N
PSLV R/B 3.8 23:40:57 10° NNE 23:45:08 58° E 23:45:08 58° E
Cosmos 44 Rocket 4.5 23:42:05 10° NNW 23:47:05 43° NE 23:50:23 19° ESE
Resurs 1-4 Rocket 4.2 23:48:37 10° NE 23:51:39 15° E 23:53:19 13° ESE
